,,PA_Meas_PMT16A,,PR_Meas_QMR101_102,,RH_Meas_QMH101,,SR_Meas_QMS101,,TA_Meas_QMH101,,GenWind,,GenWind,
time,status,PA,status,PR,status,RH,status,SR,status,TA,status,DirAvg,status,SpdAvg,
2011-06-22, 00:00:05,VALID,917.095,VALID,0,VALID,92.777,VALID,0,VALID,20.2879,VALID,129,VALID,0,
2011-06-22, 00:01:05,VALID,917.07,VALID,0,VALID,93.364,VALID,0,VALID,20.3269,VALID,129,VALID,0.437891,
2011-06-22, 00:02:05,VALID,917.005,VALID,0,VALID,93.6765,VALID,0,VALID,20.3253,VALID,129,VALID,0.242578,
2011-06-22, 00:03:05,VALID,916.978,VALID,0,VALID,93.829,VALID,0,VALID,20.3659,VALID,129,VALID,0.369531,
2011-06-22, 00:04:05,VALID,916.941,VALID,0,VALID,93.3716,VALID,0,VALID,20.3464,VALID,129,VALID,0.327734,
2011-06-22, 00:05:05,VALID,916.933,VALID,0,VALID,93.0895,VALID,0,VALID,20.3074,VALID,129,VALID,0.235938,
2011-06-22, 00:06:05,VALID,916.872,VALID,0,VALID,93.4402,VALID,0,VALID,20.2863,VALID,129,VALID,0.327344,
2011-06-22, 00:07:05,VALID,916.876,VALID,0,VALID,93.768,VALID,0.107441,VALID,20.3058,VALID,129,VALID,0.222656,
2011-06-22, 00:08:05,VALID,916.815,VALID,0,VALID,93.9586,VALID,0,VALID,20.3253,VALID,129,VALID,0,
2011-06-22, 00:09:05,VALID,916.8,VALID,0,VALID,94.1187,VALID,0,VALID,20.3253,VALID,129,VALID,0,
2011-06-22, 00:10:05,VALID,916.805,VALID,0,VALID,94.2178,VALID,0.107441,VALID,20.3238,VALID,129,VALID,0,
2011-06-22, 00:11:05,VALID,916.753,VALID,0,VALID,94.2407,VALID,0,VALID,20.3448,VALID,129,VALID,0,
2011-06-22, 00:12:05,VALID,916.755,VALID,0,VALID,94.1949,VALID,0,VALID,20.3238,VALID,129,VALID,0,
2011-06-22, 00:13:05,VALID,916.723,VALID,0,VALID,94.1111,VALID,0,VALID,20.3659,VALID,129,VALID,0,
2011-06-22, 00:14:05,VALID,916.749,VALID,0,VALID,94.0425,VALID,0,VALID,20.3253,VALID,129,VALID,0,
2011-06-22, 00:15:05,VALID,916.781,VALID,0,VALID,93.9205,VALID,0.107441,VALID,20.3253,VALID,129,VALID,0,
2011-06-22, 00:16:05,VALID,916.812,VALID,0,VALID,93.7985,VALID,0,VALID,20.2863,VALID,129,VALID,0,
2011-06-22, 00:17:05,VALID,916.892,VALID,0,VALID,94.0501,VALID,0,VALID,20.2653,VALID,129,VALID,0.701172,
2011-06-22, 00:18:05,VALID,916.912,VALID,0,VALID,94.2864,VALID,0.107441,VALID,20.2668,VALID,129,VALID,0.924219,
2011-06-22, 00:19:05,VALID,916.932,VALID,0,VALID,94.2559,VALID,0.107441,VALID,20.2068,VALID,129,VALID,0.975391,
2011-06-22, 00:20:05,VALID,916.949,VALID,0,VALID,94.355,VALID,0,VALID,20.1888,VALID,129,VALID,0.985156,
2011-06-22, 00:21:05,VALID,916.963,VALID,0,VALID,94.416,VALID,0,VALID,20.1513,VALID,129,VALID,1.04336,
2011-06-22, 00:22:05,VALID,916.97,VALID,0,VALID,94.3169,VALID,0,VALID,20.0733,VALID,129,VALID,0.583984,
2011-06-22, 00:23:05,VALID,916.953,VALID,0,VALID,94.4617,VALID,0,VALID,20.0538,VALID,129,VALID,0.957422,
2011-06-22, 00:24:05,VALID,916.913,VALID,0,VALID,94.7209,VALID,0,VALID,20.0733,VALID,129,VALID,0.980469,
2011-06-22, 00:25:05,VALID,916.899,VALID,0,VALID,94.8277,VALID,0,VALID,20.0733,VALID,129,VALID,0.376563,
2011-06-22, 00:26:05,VALID,916.878,VALID,0,VALID,94.9573,VALID,0,VALID,20.0733,VALID,129,VALID,0.786719,
2011-06-22, 00:27:05,VALID,916.848,VALID,0,VALID,95.1402,VALID,0,VALID,20.0928,VALID,129,VALID,0.522266,
2011-06-22, 00:28:05,VALID,916.827,VALID,0,VALID,95.2927,VALID,0,VALID,20.1123,VALID,129,VALID,0.160547,
2011-06-22, 00:29:05,VALID,916.767,VALID,0,VALID,95.3613,VALID,0,VALID,20.0718,VALID,129,VALID,0.304297,
2011-06-22, 00:30:05,VALID,916.713,VALID,0,VALID,95.4299,VALID,0,VALID,20.0538,VALID,129,VALID,0.358984,
2011-06-22, 00:31:05,VALID,916.678,VALID,0,VALID,95.529,VALID,0,VALID,20.0538,VALID,129,VALID,0.619531,
2011-06-22, 00:32:05,VALID,916.68,VALID,0,VALID,95.5443,VALID,0,VALID,20.0523,VALID,129,VALID,0.733203,
2011-06-22, 00:33:05,VALID,916.636,VALID,0,VALID,95.4833,VALID,0,VALID,20.0133,VALID,129,VALID,0.710156,
2011-06-22, 00:34:05,VALID,916.661,VALID,0,VALID,95.4299,VALID,0,VALID,19.9548,VALID,129,VALID,0.69375,
2011-06-22, 00:35:05,VALID,916.669,VALID,0,VALID,95.6205,VALID,0,VALID,19.9143,VALID,122,VALID,1.22031,
2011-06-22, 00:36:05,VALID,916.688,VALID,0,VALID,95.773,VALID,0.107441,VALID,19.9548,VALID,92,VALID,1.21172,
2011-06-22, 00:37:05,VALID,916.757,VALID,0,VALID,95.895,VALID,0,VALID,19.9158,VALID,92,VALID,1.08242,
2011-06-22, 00:38:05,VALID,916.773,VALID,0,VALID,95.9941,VALID,0,VALID,19.9158,VALID,104,VALID,1.27578,
2011-06-22, 00:39:05,VALID,916.809,VALID,0,VALID,96.055,VALID,0,VALID,19.8573,VALID,120,VALID,1.03047,
2011-06-22, 00:40:05,VALID,916.823,VALID,0,VALID,96.1541,VALID,0,VALID,19.8573,VALID,120,VALID,1.10898,
2011-06-22, 00:41:05,VALID,916.873,VALID,0,VALID,96.238,VALID,0,VALID,19.8783,VALID,120,VALID,1.08945,
2011-06-22, 00:42:05,VALID,916.835,VALID,0,VALID,96.2837,VALID,0,VALID,19.8378,VALID,120,VALID,0.653516,
2011-06-22, 00:43:05,VALID,916.81,VALID,0,VALID,96.3447,VALID,0,VALID,19.8378,VALID,120,VALID,0.706641,
2011-06-22, 00:44:05,VALID,916.748,VALID,0,VALID,96.3981,VALID,0,VALID,19.8378,VALID,120,VALID,0.762891,
2011-06-22, 00:45:05,VALID,916.666,VALID,0,VALID,96.4667,VALID,0,VALID,19.8378,VALID,151,VALID,0.68125,
2011-06-22, 00:46:05,VALID,916.645,VALID,0,VALID,96.5506,VALID,0.107441,VALID,19.8768,VALID,170,VALID,0.708203,
2011-06-22, 00:47:05,VALID,916.585,VALID,0,VALID,96.5887,VALID,0,VALID,19.9158,VALID,170,VALID,0.804688,
2011-06-22, 00:48:05,VALID,916.536,VALID,0,VALID,96.6268,VALID,0,VALID,19.9548,VALID,170,VALID,1.16094,
2011-06-22, 00:49:05,VALID,916.5,VALID,0,VALID,96.642,VALID,0,VALID,19.9548,VALID,170,VALID,0.942578,
2011-06-22, 00:50:05,VALID,916.498,VALID,0,VALID,96.6497,VALID,0.107441,VALID,19.9548,VALID,170,VALID,0.544531,
2011-06-22, 00:51:05,VALID,916.495,VALID,0,VALID,96.6344,VALID,0.107441,VALID,19.9548,VALID,170,VALID,0.749219,
2011-06-22, 00:52:05,VALID,916.499,VALID,0,VALID,96.6192,VALID,0,VALID,19.9353,VALID,170,VALID,1.00625,
2011-06-22, 00:53:05,VALID,916.514,VALID,0,VALID,96.6649,VALID,0,VALID,19.9368,VALID,170,VALID,0.758984,
2011-06-22, 00:54:05,VALID,916.528,VALID,0,VALID,96.6725,VALID,0,VALID,19.9158,VALID,170,VALID,0.889453,
2011-06-22, 00:55:05,VALID,916.545,VALID,0,VALID,96.6802,VALID,0,VALID,19.9158,VALID,170,VALID,0.459375,
2011-06-22, 00:56:05,VALID,916.512,VALID,0,VALID,96.6573,VALID,0,VALID,19.8768,VALID,170,VALID,0.564062,
2011-06-22, 00:57:05,VALID,916.465,VALID,0,VALID,96.6878,VALID,0,VALID,19.8963,VALID,170,VALID,0.728906,
2011-06-22, 00:58:05,VALID,916.425,VALID,0,VALID,96.7183,VALID,0,VALID,19.9368,VALID,170,VALID,0.642578,
2011-06-22, 00:59:05,VALID,916.37,VALID,0,VALID,96.703,VALID,0,VALID,19.9158,VALID,170,VALID,0.488672,
2011-06-22, 01:00:05,VALID,916.339,VALID,0,VALID,96.7259,VALID,0,VALID,19.9158,VALID,170,VALID,0.467578,
2011-06-22, 01:01:05,VALID,916.312,VALID,0,VALID,96.7564,VALID,0.107441,VALID,19.9158,VALID,170,VALID,0.407031,
2011-06-22, 01:02:05,VALID,916.262,VALID,0,VALID,96.7488,VALID,0.107441,VALID,19.9158,VALID,170,VALID,0.536328,
2011-06-22, 01:03:05,VALID,916.212,VALID,0,VALID,96.7411,VALID,0,VALID,19.9158,VALID,170,VALID,0.707422,
2011-06-22, 01:04:05,VALID,916.218,VALID,0,VALID,96.7488,VALID,0.107441,VALID,19.8963,VALID,170,VALID,0.544141,
2011-06-22, 01:05:05,VALID,916.2,VALID,0,VALID,96.7335,VALID,0,VALID,19.8558,VALID,170,VALID,0.678906,
2011-06-22, 01:06:05,VALID,916.228,VALID,0,VALID,96.7335,VALID,0,VALID,19.8378,VALID,170,VALID,0.766016,
2011-06-22, 01:07:05,VALID,916.252,VALID,0,VALID,96.7107,VALID,0,VALID,19.8003,VALID,170,VALID,0.942969,
2011-06-22, 01:08:05,VALID,916.268,VALID,0,VALID,96.7335,VALID,0,VALID,19.8393,VALID,170,VALID,1.02734,
2011-06-22, 01:09:05,VALID,916.233,VALID,0,VALID,96.7564,VALID,0,VALID,19.8783,VALID,123,VALID,1.12578,
2011-06-22, 01:10:05,VALID,916.273,VALID,0,VALID,96.764,VALID,0,VALID,19.8978,VALID,123,VALID,1.02969,
2011-06-22, 01:11:05,VALID,916.264,VALID,0,VALID,96.7716,VALID,0,VALID,19.9173,VALID,123,VALID,1.06758,
2011-06-22, 01:12:05,VALID,916.249,VALID,0,VALID,96.764,VALID,0,VALID,19.9383,VALID,123,VALID,1.02344,
2011-06-22, 01:13:05,VALID,916.241,VALID,0,VALID,96.7259,VALID,0,VALID,19.9173,VALID,123,VALID,1.20938,
2011-06-22, 01:14:05,VALID,916.213,VALID,0,VALID,96.6573,VALID,0,VALID,19.9173,VALID,123,VALID,0.921484,
2011-06-22, 01:15:05,VALID,916.162,VALID,0,VALID,96.5582,VALID,0,VALID,19.8978,VALID,123,VALID,0.819141,
2011-06-22, 01:16:05,VALID,916.13,VALID,0,VALID,96.5429,VALID,0,VALID,19.9188,VALID,123,VALID,1.05469,
2011-06-22, 01:17:05,VALID,916.102,VALID,0,VALID,96.5124,VALID,0,VALID,19.8978,VALID,123,VALID,1.02227,
2011-06-22, 01:18:05,VALID,916.043,VALID,0,VALID,96.4591,VALID,0,VALID,19.8978,VALID,123,VALID,0.658594,
2011-06-22, 01:19:05,VALID,916.026,VALID,0,VALID,96.4591,VALID,0,VALID,19.8978,VALID,123,VALID,0.79375,
2011-06-22, 01:20:05,VALID,916.048,VALID,0,VALID,96.3981,VALID,0,VALID,19.8978,VALID,123,VALID,0.712109,
2011-06-22, 01:21:05,VALID,916.029,VALID,0,VALID,96.3295,VALID,0,VALID,19.8783,VALID,123,VALID,0.920703,
2011-06-22, 01:22:05,VALID,916.04,VALID,0,VALID,96.2837,VALID,0,VALID,19.8783,VALID,123,VALID,1.08867,
2011-06-22, 01:23:05,VALID,916.095,VALID,0,VALID,96.3295,VALID,0,VALID,19.8978,VALID,123,VALID,1.04961,
2011-06-22, 01:24:05,VALID,916.092,VALID,0,VALID,96.3447,VALID,0,VALID,19.9173,VALID,124,VALID,0.989844,
2011-06-22, 01:25:05,VALID,916.084,VALID,0,VALID,96.299,VALID,0,VALID,19.8978,VALID,124,VALID,0.663281,
2011-06-22, 01:26:05,VALID,916.125,VALID,0,VALID,96.2837,VALID,0,VALID,19.8978,VALID,124,VALID,0.710938,
2011-06-22, 01:27:05,VALID,916.094,VALID,0,VALID,96.2914,VALID,0,VALID,19.8978,VALID,124,VALID,0.680078,
2011-06-22, 01:28:05,VALID,916.046,VALID,0,VALID,96.2837,VALID,0,VALID,19.8978,VALID,124,VALID,0.805859,
2011-06-22, 01:29:05,VALID,916.038,VALID,0,VALID,96.2685,VALID,0,VALID,19.8783,VALID,124,VALID,0.36875,
2011-06-22, 01:30:05,VALID,916.013,VALID,0,VALID,96.2837,VALID,0,VALID,19.8783,VALID,124,VALID,0.351172,
2011-06-22, 01:31:05,VALID,916.039,VALID,0,VALID,96.3066,VALID,0,VALID,19.8783,VALID,124,VALID,0.505078,
2011-06-22, 01:32:05,VALID,916.026,VALID,0,VALID,96.2914,VALID,0,VALID,19.8783,VALID,124,VALID,0.266406,
2011-06-22, 01:33:05,VALID,915.986,VALID,0,VALID,96.3142,VALID,0,VALID,19.8783,VALID,124,VALID,0,
2011-06-22, 01:34:05,VALID,915.992,VALID,0,VALID,96.1008,VALID,0,VALID,19.8003,VALID,124,VALID,0.320703,
2011-06-22, 01:35:05,VALID,915.972,VALID,0,VALID,96.0017,VALID,0,VALID,19.7238,VALID,124,VALID,0.613281,
2011-06-22, 01:36:05,VALID,915.994,VALID,0,VALID,96.0779,VALID,0,VALID,19.7013,VALID,124,VALID,0.771875,
2011-06-22, 01:37:05,VALID,915.956,VALID,0,VALID,96.2151,VALID,0,VALID,19.7208,VALID,124,VALID,1.0332,
2011-06-22, 01:38:05,VALID,915.97,VALID,0,VALID,96.3371,VALID,0,VALID,19.7403,VALID,124,VALID,0.772266,
2011-06-22, 01:39:05,VALID,915.939,VALID,0,VALID,96.3447,VALID,0,VALID,19.7208,VALID,124,VALID,0.632422,
2011-06-22, 01:40:05,VALID,915.902,VALID,0,VALID,96.36,VALID,0,VALID,19.7193,VALID,124,VALID,0.790625,
2011-06-22, 01:41:05,VALID,915.872,VALID,0,VALID,96.3295,VALID,0,VALID,19.7208,VALID,124,VALID,0.464063,
2011-06-22, 01:42:05,VALID,915.854,VALID,0,VALID,96.3981,VALID,0,VALID,19.7388,VALID,124,VALID,0.769141,
2011-06-22, 01:43:05,VALID,915.8,VALID,0,VALID,96.3752,VALID,0,VALID,19.7388,VALID,124,VALID,0.450781,
2011-06-22, 01:44:05,VALID,915.798,VALID,0,VALID,96.3524,VALID,0,VALID,19.7793,VALID,124,VALID,0.608203,
2011-06-22, 01:45:05,VALID,915.767,VALID,0,VALID,96.2761,VALID,0,VALID,19.7793,VALID,124,VALID,0.633984,
2011-06-22, 01:46:05,VALID,915.782,VALID,0,VALID,96.2685,VALID,0,VALID,19.7583,VALID,124,VALID,0.589453,
2011-06-22, 01:47:04,VALID,915.773,VALID,0,VALID,96.2228,VALID,0,VALID,19.7598,VALID,124,VALID,0.528906,
2011-06-22, 01:48:04,VALID,915.75,VALID,0,VALID,96.1541,VALID,0,VALID,19.7598,VALID,124,VALID,0.561328,
2011-06-22, 01:49:04,VALID,915.75,VALID,0,VALID,96.1236,VALID,0,VALID,19.7403,VALID,125,VALID,0.541406,
2011-06-22, 01:50:04,VALID,915.762,VALID,0,VALID,96.1008,VALID,0,VALID,19.7403,VALID,131,VALID,0.658203,
2011-06-22, 01:51:04,VALID,915.752,VALID,0,VALID,96.0855,VALID,0,VALID,19.7223,VALID,141,VALID,0.667188,
2011-06-22, 01:52:04,VALID,915.731,VALID,0,VALID,96.1389,VALID,0,VALID,19.7223,VALID,141,VALID,0.926172,
2011-06-22, 01:53:04,VALID,915.737,VALID,0,VALID,96.1999,VALID,0,VALID,19.7418,VALID,141,VALID,0.751172,
2011-06-22, 01:54:04,VALID,915.707,VALID,0,VALID,96.2228,VALID,0,VALID,19.7418,VALID,141,VALID,0.667969,
2011-06-22, 01:55:04,VALID,915.717,VALID,0,VALID,96.2609,VALID,0,VALID,19.7223,VALID,141,VALID,0.791016,
2011-06-22, 01:56:04,VALID,915.714,VALID,0,VALID,96.2837,VALID,0,VALID,19.7223,VALID,143,VALID,0.933203,
2011-06-22, 01:57:04,VALID,915.699,VALID,0,VALID,96.3447,VALID,0,VALID,19.7418,VALID,162,VALID,0.657031,
2011-06-22, 01:58:04,VALID,915.682,VALID,0,VALID,96.3524,VALID,0,VALID,19.7223,VALID,162,VALID,0.84375,
2011-06-22, 01:59:04,VALID,915.675,VALID,0,VALID,96.3905,VALID,0,VALID,19.7418,VALID,162,VALID,0.722266,
2011-06-22, 02:00:04,VALID,915.692,VALID,0,VALID,96.2914,VALID,0,VALID,19.7238,VALID,162,VALID,0.448438,
2011-06-22, 02:01:04,VALID,915.643,VALID,0,VALID,96.2456,VALID,0,VALID,19.6653,VALID,162,VALID,0.598828,
2011-06-22, 02:02:04,VALID,915.661,VALID,0,VALID,96.36,VALID,0,VALID,19.6638,VALID,162,VALID,0.785547,
2011-06-22, 02:03:04,VALID,915.639,VALID,0,VALID,96.4362,VALID,0,VALID,19.6833,VALID,162,VALID,0.584766,
2011-06-22, 02:04:04,VALID,915.621,VALID,0,VALID,96.4057,VALID,0,VALID,19.6833,VALID,162,VALID,0.684375,
2011-06-22, 02:05:04,VALID,915.577,VALID,0,VALID,96.421,VALID,0,VALID,19.6833,VALID,162,VALID,0.862109,
2011-06-22, 02:06:04,VALID,915.614,VALID,0,VALID,96.4133,VALID,0,VALID,19.6638,VALID,162,VALID,0.982031,
2011-06-22, 02:07:04,VALID,915.617,VALID,0,VALID,96.4591,VALID,0,VALID,19.6638,VALID,162,VALID,0.883984,
2011-06-22, 02:08:04,VALID,915.588,VALID,0,VALID,96.4515,VALID,0,VALID,19.6638,VALID,162,VALID,0.751172,
2011-06-22, 02:09:04,VALID,915.599,VALID,0,VALID,96.4972,VALID,0,VALID,19.6833,VALID,157,VALID,1.22734,
2011-06-22, 02:10:04,VALID,915.624,VALID,0,VALID,96.4667,VALID,0,VALID,19.6833,VALID,152,VALID,0.839063,
2011-06-22, 02:11:04,VALID,915.609,VALID,0,VALID,96.4133,VALID,0,VALID,19.6833,VALID,138,VALID,0.610156,
2011-06-22, 02:12:04,VALID,915.646,VALID,0,VALID,96.3752,VALID,0,VALID,19.6848,VALID,108,VALID,0.998438,
2011-06-22, 02:13:04,VALID,915.626,VALID,0,VALID,96.3752,VALID,0,VALID,19.6638,VALID,108,VALID,0.631641,
2011-06-22, 02:14:04,VALID,915.601,VALID,0,VALID,96.3829,VALID,0,VALID,19.6638,VALID,108,VALID,0.576953,
2011-06-22, 02:15:04,VALID,915.591,VALID,0,VALID,96.36,VALID,0,VALID,19.6638,VALID,108,VALID,0.441406,
2011-06-22, 02:16:04,VALID,915.556,VALID,0,VALID,96.3829,VALID,0,VALID,19.6833,VALID,108,VALID,0.701563,
2011-06-22, 02:17:04,VALID,915.519,VALID,0,VALID,96.3752,VALID,0,VALID,19.7028,VALID,108,VALID,0.378906,
2011-06-22, 02:18:04,VALID,915.465,VALID,0,VALID,96.36,VALID,0,VALID,19.7028,VALID,108,VALID,0.314063,
2011-06-22, 02:19:04,VALID,915.437,VALID,0,VALID,96.3219,VALID,0,VALID,19.7028,VALID,108,VALID,0.325391,
2011-06-22, 02:20:04,VALID,915.434,VALID,0,VALID,96.2456,VALID,0,VALID,19.7028,VALID,108,VALID,0.501562,
2011-06-22, 02:21:04,VALID,915.435,VALID,0,VALID,96.2609,VALID,0,VALID,19.7418,VALID,109,VALID,0.755859,
2011-06-22, 02:22:04,VALID,915.435,VALID,0,VALID,96.2151,VALID,0,VALID,19.7418,VALID,108,VALID,0.144922,
2011-06-22, 02:23:04,VALID,915.447,VALID,0,VALID,96.1313,VALID,0,VALID,19.7223,VALID,108,VALID,0.465234,
2011-06-22, 02:24:04,VALID,915.462,VALID,0,VALID,96.0627,VALID,0,VALID,19.7223,VALID,108,VALID,0.917188,
2011-06-22, 02:25:04,VALID,915.465,VALID,0,VALID,96.0779,VALID,0,VALID,19.7418,VALID,122,VALID,0.783203,
2011-06-22, 02:26:04,VALID,915.476,VALID,0,VALID,96.0017,VALID,0,VALID,19.7028,VALID,122,VALID,0.738672,
2011-06-22, 02:27:04,VALID,915.499,VALID,0,VALID,96.0474,VALID,0,VALID,19.7223,VALID,122,VALID,0.662109,
2011-06-22, 02:28:04,VALID,915.492,VALID,0,VALID,96.1465,VALID,0,VALID,19.7823,VALID,122,VALID,0.847656,
2011-06-22, 02:29:04,VALID,915.462,VALID,0,VALID,96.1313,VALID,0,VALID,19.7613,VALID,122,VALID,0.755469,
2011-06-22, 02:30:04,VALID,915.493,VALID,0,VALID,96.1923,VALID,0,VALID,19.7808,VALID,122,VALID,0.432813,
2011-06-22, 02:31:04,VALID,915.416,VALID,0,VALID,96.1694,VALID,0,VALID,19.8003,VALID,122,VALID,0.580469,
2011-06-22, 02:32:04,VALID,915.45,VALID,0,VALID,96.177,VALID,0,VALID,19.8003,VALID,122,VALID,0.29375,
2011-06-22, 02:33:04,VALID,915.457,VALID,0,VALID,96.1465,VALID,0,VALID,19.8003,VALID,122,VALID,0.242188,
2011-06-22, 02:34:04,VALID,915.439,VALID,0,VALID,96.1465,VALID,0,VALID,19.8198,VALID,122,VALID,0.190625,
2011-06-22, 02:35:04,VALID,915.433,VALID,0,VALID,96.1389,VALID,0,VALID,19.8393,VALID,122,VALID,0,
2011-06-22, 02:36:04,VALID,915.446,VALID,0,VALID,96.1084,VALID,0,VALID,19.8573,VALID,122,VALID,0,
2011-06-22, 02:37:04,VALID,915.422,VALID,0,VALID,96.0932,VALID,0,VALID,19.8573,VALID,122,VALID,0,
2011-06-22, 02:38:04,VALID,915.417,VALID,0,VALID,96.0779,VALID,0,VALID,19.8573,VALID,122,VALID,0,
2011-06-22, 02:39:04,VALID,915.393,VALID,0,VALID,96.0017,VALID,0.107441,VALID,19.8573,VALID,122,VALID,0.065625,
2011-06-22, 02:40:04,VALID,915.392,VALID,0,VALID,95.9788,VALID,0,VALID,19.8378,VALID,122,VALID,0.06875,
2011-06-22, 02:41:04,VALID,915.432,VALID,0,VALID,95.9026,VALID,0,VALID,19.8378,VALID,122,VALID,0,
2011-06-22, 02:42:04,VALID,915.479,VALID,0,VALID,95.8416,VALID,0,VALID,19.8168,VALID,122,VALID,0,
2011-06-22, 02:43:04,VALID,915.489,VALID,0,VALID,95.8187,VALID,0,VALID,19.8573,VALID,122,VALID,0,
2011-06-22, 02:44:04,VALID,915.5,VALID,0,VALID,95.7882,VALID,0,VALID,19.8573,VALID,122,VALID,0,
2011-06-22, 02:45:04,VALID,915.528,VALID,0,VALID,95.7272,VALID,0,VALID,19.8378,VALID,122,VALID,0.132813,
2011-06-22, 02:46:04,VALID,915.509,VALID,0,VALID,95.7501,VALID,0,VALID,19.8768,VALID,122,VALID,0.564062,
2011-06-22, 02:47:04,VALID,915.55,VALID,0,VALID,95.712,VALID,0.107441,VALID,19.8768,VALID,122,VALID,0.493359,
2011-06-22, 02:48:04,VALID,915.5,VALID,0,VALID,95.6967,VALID,0.107441,VALID,19.8768,VALID,122,VALID,0.284766,
2011-06-22, 02:49:04,VALID,915.523,VALID,0,VALID,95.6815,VALID,0.107441,VALID,19.8768,VALID,122,VALID,0.325391,
2011-06-22, 02:50:04,VALID,915.543,VALID,0,VALID,95.6967,VALID,0,VALID,19.8573,VALID,122,VALID,0.336719,
2011-06-22, 02:51:04,VALID,915.571,VALID,0,VALID,95.6662,VALID,0,VALID,19.8393,VALID,122,VALID,0.360938,
2011-06-22, 02:52:04,VALID,915.587,VALID,0,VALID,95.5976,VALID,0,VALID,19.8393,VALID,122,VALID,0.529688,
2011-06-22, 02:53:04,VALID,915.611,VALID,0,VALID,95.5671,VALID,0,VALID,19.8393,VALID,163,VALID,0.737109,
2011-06-22, 02:54:04,VALID,915.663,VALID,0,VALID,95.5748,VALID,0,VALID,19.8588,VALID,163,VALID,0.538672,
2011-06-22, 02:55:04,VALID,915.679,VALID,0,VALID,95.6357,VALID,0,VALID,19.8783,VALID,163,VALID,0.716016,
2011-06-22, 02:56:04,VALID,915.718,VALID,0,VALID,95.6129,VALID,0,VALID,19.8588,VALID,163,VALID,0.435937,
2011-06-22, 02:57:04,VALID,915.731,VALID,0,VALID,95.6205,VALID,0,VALID,19.8393,VALID,163,VALID,0.526563,
2011-06-22, 02:58:04,VALID,915.712,VALID,0,VALID,95.651,VALID,0,VALID,19.8393,VALID,136,VALID,0.71875,
2011-06-22, 02:59:04,VALID,915.655,VALID,0,VALID,95.6662,VALID,0,VALID,19.8198,VALID,136,VALID,0.466406,
2011-06-22, 03:00:04,VALID,915.661,VALID,0,VALID,95.7349,VALID,0,VALID,19.8198,VALID,136,VALID,0.392578,
2011-06-22, 03:01:04,VALID,915.624,VALID,0,VALID,95.8187,VALID,0,VALID,19.8003,VALID,136,VALID,0.303125,
2011-06-22, 03:02:04,VALID,915.64,VALID,0,VALID,95.8873,VALID,0,VALID,19.8003,VALID,136,VALID,0.342969,
2011-06-22, 03:03:04,VALID,915.629,VALID,0,VALID,95.9483,VALID,0,VALID,19.8198,VALID,136,VALID,0.429688,
2011-06-22, 03:04:04,VALID,915.661,VALID,0,VALID,95.9712,VALID,0,VALID,19.8198,VALID,136,VALID,0.321484,
2011-06-22, 03:05:04,VALID,915.648,VALID,0,VALID,95.9941,VALID,0,VALID,19.8003,VALID,136,VALID,0.0621094,
2011-06-22, 03:06:04,VALID,915.697,VALID,0,VALID,96.0398,VALID,0,VALID,19.7793,VALID,136,VALID,0,
2011-06-22, 03:07:04,VALID,915.684,VALID,0,VALID,96.0855,VALID,0,VALID,19.8198,VALID,136,VALID,0,
2011-06-22, 03:08:04,VALID,915.679,VALID,0,VALID,96.0855,VALID,0,VALID,19.8198,VALID,136,VALID,0.131641,
2011-06-22, 03:09:04,VALID,915.67,VALID,0,VALID,96.1084,VALID,0,VALID,19.8393,VALID,136,VALID,0.313672,
2011-06-22, 03:10:04,VALID,915.638,VALID,0,VALID,96.0932,VALID,0,VALID,19.8393,VALID,136,VALID,0.273438,
2011-06-22, 03:11:04,VALID,915.646,VALID,0,VALID,96.1008,VALID,0,VALID,19.8393,VALID,136,VALID,0.304297,
2011-06-22, 03:12:04,VALID,915.615,VALID,0,VALID,96.0093,VALID,0,VALID,19.8393,VALID,136,VALID,0.416016,
2011-06-22, 03:13:04,VALID,915.634,VALID,0,VALID,95.8797,VALID,0,VALID,19.8213,VALID,136,VALID,0.782422,
2011-06-22, 03:14:04,VALID,915.635,VALID,0,VALID,95.7882,VALID,0,VALID,19.7418,VALID,136,VALID,1.01836,
2011-06-22, 03:15:04,VALID,915.62,VALID,0,VALID,95.8721,VALID,0,VALID,19.7028,VALID,136,VALID,1.025,
2011-06-22, 03:16:04,VALID,915.65,VALID,0,VALID,95.9407,VALID,0,VALID,19.7028,VALID,136,VALID,1.04648,
2011-06-22, 03:17:04,VALID,915.62,VALID,0,VALID,95.9636,VALID,0,VALID,19.6833,VALID,133,VALID,1.18672,
2011-06-22, 03:18:04,VALID,915.618,VALID,0,VALID,95.9559,VALID,0,VALID,19.6833,VALID,137,VALID,1.08086,
2011-06-22, 03:19:04,VALID,915.628,VALID,0,VALID,95.9712,VALID,0,VALID,19.6833,VALID,137,VALID,1.06328,
2011-06-22, 03:20:04,VALID,915.617,VALID,0,VALID,96.0093,VALID,0,VALID,19.6818,VALID,150,VALID,1.08086,
2011-06-22, 03:21:04,VALID,915.565,VALID,0,VALID,95.9941,VALID,0,VALID,19.7028,VALID,150,VALID,0.528906,
2011-06-22, 03:22:04,VALID,915.567,VALID,0,VALID,95.9941,VALID,0,VALID,19.7028,VALID,150,VALID,0.336328,
2011-06-22, 03:23:04,VALID,915.581,VALID,0,VALID,95.9941,VALID,0,VALID,19.7028,VALID,150,VALID,0.582422,
2011-06-22, 03:24:04,VALID,915.521,VALID,0,VALID,95.9331,VALID,0,VALID,19.6833,VALID,150,VALID,0.475,
2011-06-22, 03:25:04,VALID,915.536,VALID,0,VALID,95.9331,VALID,0,VALID,19.6833,VALID,150,VALID,0.583594,
2011-06-22, 03:26:04,VALID,915.514,VALID,0,VALID,95.9712,VALID,0,VALID,19.6833,VALID,150,VALID,0.832031,
2011-06-22, 03:27:04,VALID,915.489,VALID,0,VALID,95.9712,VALID,0,VALID,19.6443,VALID,150,VALID,0.677344,
2011-06-22, 03:28:04,VALID,915.48,VALID,0,VALID,95.9254,VALID,0,VALID,19.6248,VALID,150,VALID,0.510547,
2011-06-22, 03:29:04,VALID,915.43,VALID,0,VALID,95.9941,VALID,0,VALID,19.6053,VALID,150,VALID,0.603125,
2011-06-22, 03:30:04,VALID,915.443,VALID,0,VALID,96.0169,VALID,0,VALID,19.6053,VALID,150,VALID,0.276953,
2011-06-22, 03:31:04,VALID,915.448,VALID,0,VALID,95.9788,VALID,0,VALID,19.5858,VALID,150,VALID,0.436328,
2011-06-22, 03:32:04,VALID,915.38,VALID,0,VALID,96.0093,VALID,0,VALID,19.5663,VALID,150,VALID,0.466406,
2011-06-22, 03:33:04,VALID,915.363,VALID,0,VALID,96.0322,VALID,0,VALID,19.5663,VALID,150,VALID,0.4375,
2011-06-22, 03:34:04,VALID,915.383,VALID,0,VALID,96.0398,VALID,0,VALID,19.5468,VALID,150,VALID,0.394141,
2011-06-22, 03:35:04,VALID,915.379,VALID,0,VALID,95.9788,VALID,0,VALID,19.5258,VALID,150,VALID,0.635156,
2011-06-22, 03:36:04,VALID,915.372,VALID,0,VALID,95.9559,VALID,0,VALID,19.5078,VALID,150,VALID,0.660547,
2011-06-22, 03:37:04,VALID,915.372,VALID,0,VALID,96.0017,VALID,0,VALID,19.5078,VALID,150,VALID,0.410937,
2011-06-22, 03:38:04,VALID,915.36,VALID,0,VALID,96.0322,VALID,0,VALID,19.5273,VALID,150,VALID,0.43125,
2011-06-22, 03:39:04,VALID,915.361,VALID,0,VALID,96.055,VALID,0,VALID,19.5273,VALID,150,VALID,0.0285156,
2011-06-22, 03:40:04,VALID,915.386,VALID,0,VALID,96.055,VALID,0,VALID,19.5078,VALID,150,VALID,0.202734,
2011-06-22, 03:41:04,VALID,915.393,VALID,0,VALID,96.0322,VALID,0,VALID,19.5078,VALID,150,VALID,0,
2011-06-22, 03:42:04,VALID,915.389,VALID,0,VALID,96.0474,VALID,0,VALID,19.4883,VALID,150,VALID,0.208594,
2011-06-22, 03:43:04,VALID,915.363,VALID,0,VALID,96.0322,VALID,0,VALID,19.5078,VALID,150,VALID,0.228906,
2011-06-22, 03:44:04,VALID,915.418,VALID,0,VALID,96.0169,VALID,0,VALID,19.5288,VALID,150,VALID,0.343359,
2011-06-22, 03:45:04,VALID,915.387,VALID,0,VALID,96.0245,VALID,0,VALID,19.5273,VALID,150,VALID,0.232812,